Weather History for Homer, AK

Change the Weather History Date:

Tuesday, November 2, 2010

  Actual Average Record
Temperature  
Mean Temperature 36 °F -  
Max Temperature 42 °F 38 °F 52 °F (1962)
Min Temperature 30 °F 26 °F 2 °F (1985)
Degree Days  
Heating Degree Days 30    
Moisture  
Dew Point 31 °F    
Average Humidity 81    
Maximum Humidity 100    
Minimum Humidity 55    
Precipitation  
Precipitation 0.04 in - - ()
Sea Level Pressure  
Sea Level Pressure 29.49 in    
Wind  
Wind Speed 6 mph (SE)    
Max Wind Speed 16 mph    
Max Gust Speed 21 mph    
Visibility 10 miles    
Events Rain    
Averages and records for this station are not official NWS values.
T = Trace of Precipitation, MM = Missing Value Source: NWS Daily Summary

Daily Weather History Graph

Daily Weather History Graph

Search for Another Location

Airport:

Trip Planner

Search our weather history database for the weather conditions in past years. The results will help you decide how hot, cold, wet, or windy it might be!

Date:

Astronomy

Nov. 02, 2010 Rise Set
Actual Time 9:29 AM AKDT 6:08 PM AKDT
Civil Twilight 8:44 AM AKDT 6:53 PM AKDT
Nautical Twilight 7:55 AM AKDT 7:42 PM AKDT
Astronomical Twilight 7:07 AM AKDT 8:29 PM AKDT
Moon 4:38 AM AKDT (11/2) 4:33 PM AKDT (11/2)
Length of Visible Light 10h 08m
Length of Day
8h 38m
Waning Crescent, 15% of the Moon is Illuminated
Nov 2
Waning Crescent
Nov 5
New
Nov 13
First Quarter
Nov 21
Full
Nov 28
Last Quarter

Hourly Weather History & Observations

Time (AKDT) Temp. Windchill Dew Point Humidity Pressure Visibility Wind Dir Wind Speed Gust Speed Precip Events Conditions
12:53 AM 34.0 °F 28.0 °F 33.1 °F 96% 29.07 in 10.0 mi NE 6.9 mph - 0.01 in   Overcast
1:34 AM 33.8 °F - 33.8 °F 100% 29.09 in 10.0 mi Calm Calm - 0.00 in   Overcast
1:53 AM 34.0 °F 31.0 °F 33.1 °F 96% 29.11 in 10.0 mi NNE 3.5 mph - 0.00 in   Overcast
2:18 AM 33.8 °F 29.6 °F 33.8 °F 100% 29.12 in 6.0 mi NE 4.6 mph - N/A   Overcast
2:53 AM 33.1 °F - 33.1 °F 100% 29.15 in 3.0 mi Calm Calm - 0.00 in Rain Light Rain
3:44 AM 33.8 °F 30.8 °F 33.8 °F 100% 29.17 in 7.0 mi NNE 3.5 mph - 0.02 in Rain Light Rain
3:53 AM 34.0 °F 29.8 °F 34.0 °F 100% 29.18 in 10.0 mi NE 4.6 mph - 0.02 in   Overcast
4:53 AM 36.0 °F 28.5 °F 34.0 °F 93% 29.22 in 10.0 mi SW 10.4 mph 19.6 mph 0.01 in   Overcast
5:39 AM 37.4 °F 28.9 °F 32.0 °F 81% 29.25 in 10.0 mi WSW 13.8 mph - N/A   Overcast
5:53 AM 37.0 °F 27.7 °F 32.0 °F 82% 29.26 in 10.0 mi WSW 16.1 mph - N/A   Overcast
6:09 AM 35.6 °F 27.5 °F 30.2 °F 81% 29.27 in 10.0 mi WSW 11.5 mph - N/A   Overcast
6:53 AM 36.0 °F 28.0 °F 32.0 °F 86% 29.31 in 10.0 mi WSW 11.5 mph - N/A   Overcast
7:53 AM 37.0 °F 29.3 °F 30.0 °F 76% 29.36 in 10.0 mi SSW 11.5 mph - N/A   Mostly Cloudy
8:53 AM 37.0 °F 33.3 °F 27.0 °F 67% 29.42 in 10.0 mi Variable 4.6 mph - N/A   Overcast
9:53 AM 37.9 °F 33.5 °F 27.0 °F 65% 29.48 in 10.0 mi South 5.8 mph - N/A   Mostly Cloudy
10:53 AM 37.9 °F 31.5 °F 27.0 °F 65% 29.54 in 10.0 mi SSE 9.2 mph - N/A   Clear
11:53 AM 37.9 °F 32.1 °F 25.0 °F 60% 29.60 in 10.0 mi South 8.1 mph - N/A   Clear
12:53 PM 41.0 °F 37.1 °F 26.1 °F 55% 29.65 in 10.0 mi SE 5.8 mph - N/A   Overcast
1:53 PM 41.0 °F 37.1 °F 27.0 °F 57% 29.68 in 10.0 mi SE 5.8 mph - N/A   Partly Cloudy
2:53 PM 39.0 °F 31.8 °F 28.9 °F 67% 29.70 in 10.0 mi ESE 11.5 mph 20.7 mph N/A   Scattered Clouds
3:53 PM 39.9 °F 34.5 °F 28.9 °F 65% 29.73 in 10.0 mi ESE 8.1 mph 16.1 mph N/A   Mostly Cloudy
4:53 PM 37.9 °F 34.4 °F 30.0 °F 73% 29.76 in 10.0 mi ENE 4.6 mph - 0.00 in   Clear
5:53 PM 39.0 °F 32.3 °F 28.9 °F 67% 29.78 in 10.0 mi South 10.4 mph 16.1 mph N/A   Mostly Cloudy
7:50 PM 35.6 °F 31.7 °F 30.2 °F 81% 29.83 in 10.0 mi NNW 4.6 mph - N/A   Scattered Clouds
7:53 PM 36.0 °F 32.1 °F 30.9 °F 82% 29.84 in 10.0 mi NW 4.6 mph - N/A   Partly Cloudy
8:53 PM 34.0 °F 31.0 °F 30.0 °F 85% 29.86 in 10.0 mi NE 3.5 mph - N/A   Scattered Clouds
9:53 PM 34.0 °F - 30.9 °F 89% 29.88 in 10.0 mi Calm Calm - 0.00 in   Mostly Cloudy
10:53 PM 30.9 °F - 28.9 °F 92% 29.88 in 10.0 mi Calm Calm - N/A   Partly Cloudy
11:53 PM 36.0 °F 32.1 °F 33.1 °F 89% 29.89 in 10.0 mi NE 4.6 mph - 0.00 in   Overcast